SCP
0 0 0 0 0 0 0 0 0 0 0 0 0 0 0 0 0 0 0 0 0 0 0 0 0 0 0 0 0 0 0 0 0 0 0 0 0 0 0 0 0 0 0 0 0 0 0 0 0
0 0 0 0 0 0 0 0 0 0 0 0 0 0 0 0 0 0 0 0 0 0 0 0 0 0 0 0 0 0 0 0 0 0 0 0 0 0 0 0 0 0 0 0 0 0 0 0 0
0 0 0 0 0 0 0 0 0 0 0 0 0 0 0 0 0 0 0 0 0 0 0 0 0 0 0 0 0 0 0 0 0 0 0 0 0 0 0 0 0 0 0 0 0 0 0 0 0
0 0 0 0 0 0 0 0 0 0 0 0 0 0 0 0 0 0 0 0 0 0 0 0 0 0 0 0 0 0 0 0 0 0 0 0 0 0 0 0 0 0 0 0 0 0 0 0 0
0 0 0 0 0 0 0 0 0 0 0 0 0 0 0 0 0 0 0 0 0 0 0 0 0 0 0 0 0 0 0 0 0 0 0 0 0 0 0 0 0 0 0 0 0 0 0 0 0
0 0 0 0 0 0 0 0 0 0 0 0 0 0 0 0 0 0 1 0 0 0 0 0 0 0 0 0 0 0 0 0 0 0 0 0 0 0 0 0 0 0 0 0 0 0 0 0 0
0 0 0 0 0 0 0 0 0 0 0 0 0 0 0 0 0 1 1 1 0 0 0 0 0 0 0 0 0 0 0 0 0 0 0 0 0 0 0 0 0 0 0 0 0 0 0 0 0
0 0 0 0 0 0 0 0 0 0 0 0 0 0 0 0 1 1 1 1 1 0 0 0 0 0 0 0 0 0 0 0 0 0 0 0 0 0 0 0 0 0 0 0 0 0 0 0 0
0 0 0 0 0 0 0 0 0 0 0 0 0 0 1 1 1 1 1 1 1 0 0 0 0 0 0 0 0 0 0 0 0 0 0 0 0 0 0 0 0 0 0 0 0 0 0 0 0
0 0 0 0 0 0 0 0 0 0 0 0 0 1 1 1 1 1 1 1 1 0 0 0 0 0 0 0 0 0 0 0 0 0 0 0 0 -0 -0 -0 0 0 0 0 0 0 0 0 0
0 0 0 0 0 0 0 0 0 0 0 0 1 1 1 1 1 1 1 1 1 0 0 0 0 0 0 0 0 0 0 0 0 0 0 0 0 0 -0 -0 -0 -0 -0 -0 0 0 0 0 0
0 0 0 0 0 0 0 0 0 0 0 0 1 1 1 1 1 1 1 1 1 0 0 0 0 0 0 0 0 0 0 0 0 0 0 0 0 0 0 -0 -0 -0 -0 -0 -0 -0 0 0 0
0 0 0 0 0 0 0 0 0 0 0 1 1 1 1 1 1 1 1 1 1 0 0 0 0 0 0 0 0 0 0 0 0 0 0 0 0 0 0 0 0 0 -0 -0 -0 -0 0 0 0
0 0 0 0 0 0 0 0 0 0 0 1 1 1 1 1 1 1 1 1 1 0 0 0 0 0 0 0 0 0 0 0 0 0 0 0 0 0 0 0 0 0 0 0 0 -0 0 0 0
-0 0 0 -0 0 0 0 0 0 0 0 1 1 1 1 1 1 1 1 1 1 0 0 0 0 0 0 0 0 0 0 0 0 0 0 0 0 0 0 0 0 0 0 0 0 0 0 0 0
0 0 0 -0 0 0 0 0 0 0 0 1 1 1 1 1 1 1 1 1 1 0 0 0 0 0 0 0 0 0 0 0 0 0 0 0 0 0 0 0 0 0 0 0 0 0 0 0 0
0 0 0 -0 0 0 0 0 0 0 0 0 1 1 1 1 1 1 1 1 1 0 0 0 0 0 0 0 0 0 0 0 0 0 0 0 0 0 0 0 0 0 0 0 0 0 0 0 0
0 0 -0 -0 0 0 0 0 0 0 0 0 1 1 1 1 1 1 1 1 1 0 0 0 0 0 0 0 0 0 0 0 0 0 0 0 0 0 0 0 0 0 0 0 0 0 0 0 0
0 0 0 0 0 0 0 0 0 0 0 0 1 1 1 1 1 1 1 1 1 0 0 0 0 0 0 0 0 0 0 0 0 0 0 0 0 0 0 0 0 0 0 0 0 0 0 0 0
0 0 0 0 0 0 0 0 0 0 0 0 1 1 1 1 1 1 1 1 1 0 0 0 0 0 0 0 0 0 0 0 0 0 0 0 0 0 0 0 0 0 0 0 0 0 0 0 0
0 0 0 0 0 0 0 0 0 0 0 0 0 1 1 1 1 1 1 1 1 0 0 0 0 0 0 0 0 0 0 0 0 0 0 0 0 0 0 0 0 0 0 0 0 0 0 0 0
0 0 0 0 0 0 0 0 0 0 0 0 0 1 1 1 1 1 1 1 0 0 0 0 0 0 0 0 0 0 0 0 0 0 0 0 0 0 0 0 0 0 0 0 0 0 0 0 0
0 0 0 0 0 0 0 0 0 0 0 0 0 1 1 1 1 1 1 0 0 0 0 0 0 0 0 0 0 0 0 0 0 0 0 0 0 0 0 0 0 0 0 0 0 0 0 0 0
0 0 0 0 0 0 0 0 0 0 0 0 0 0 1 1 1 1 1 0 0 0 0 0 0 0 0 0 0 0 0 0 0 0 0 0 0 0 0 0 0 0 0 0 0 0 0 0 0
0 0 0 0 0 0 0 0 0 0 0 0 0 0 1 1 1 1 1 0 0 0 0 0 0 0 0 0 0 0 0 0 0 0 0 0 0 0 0 0 0 0 0 0 0 0 0 0 0
0 0 0 0 0 0 0 0 0 0 0 0 0 0 1 1 1 1 1 0 0 0 0 0 0 0 0 0 0 0 0 0 0 0 0 0 0 0 0 0 0 0 0 0 0 0 0 0 0
0 0 0 0 0 0 0 0 0 0 0 0 0 0 0 1 1 1 0 0 0 0 0 0 0 0 0 0 0 0 0 0 0 0 0 0 0 0 0 0 0 0 0 0 0 0 0 0 0
0 0 0 0 0 0 0 0 0 0 0 0 0 0 0 0 0 0 0 0 0 0 0 0 0 0 0 0 0 0 0 0 0 0 0 0 0 0 0 0 0 0 0 0 0 0 0 0 0
0 0 0 0 0 0 0 0 0 0 0 0 0 0 0 0 0 0 0 0 0 0 0 0 0 0 0 0 0 0 0 0 0 0 0 0 0 0 0 0 0 0 0 0 0 0 0 0 0
0 0 0 0 0 0 0 0 0 0 0 0 0 0 0 0 0 0 0 0 0 0 0 0 0 0 0 0 0 0 0 0 0 0 0 0 0 0 0 0 0 0 0 0 0 0 0 0 0
Wind_Speed
3 3 3 1 5 6 3 3 1 2 2 2 4 4 5 4 2 3 3 9 13 11 9 12 14 14 14 14 14 14 14 14 14 13 13 13 12 12 11 11 11 11 11 11 11 12 12 12 12
2 3 1 3 6 4 4 3 2 1 3 4 5 5 5 4 4 7 6 9 14 12 8 10 15 14 14 14 13 13 14 13 13 13 12 12 12 12 11 11 11 10 11 11 11 11 12 12 12
2 2 3 5 4 2 1 2 0 2 2 2 4 4 4 4 6 6 7 13 12 10 8 11 16 15 14 14 13 13 13 13 12 12 12 12 11 11 11 10 10 11 11 11 11 11 11 11 11
2 3 4 6 2 2 3 3 1 2 2 3 4 5 4 3 6 8 14 14 13 9 8 11 16 15 14 13 13 12 12 12 12 11 11 11 11 10 10 10 10 11 11 11 11 11 11 11 10
3 4 6 4 2 3 3 3 2 1 1 2 4 4 3 4 9 15 15 14 13 9 7 9 15 15 14 13 13 12 12 12 11 11 11 11 10 10 10 10 10 10 11 11 11 11 11 10 10
4 5 6 2 4 3 2 2 2 2 2 2 4 4 2 4 11 14 13 11 11 10 7 8 15 15 14 13 12 12 11 11 11 11 10 10 10 10 10 10 10 10 10 11 10 10 10 10 10
4 4 3 0 2 2 1 2 3 3 2 3 5 5 3 5 8 11 11 10 9 8 7 6 7 10 13 13 12 11 11 11 10 10 10 10 10 10 10 10 10 10 10 10 10 10 9 9 8
4 5 3 1 1 3 1 2 1 3 2 3 5 8 6 8 10 11 10 9 8 7 6 5 5 5 5 7 11 11 11 10 10 10 10 10 10 9 10 8 8 9 9 9 9 9 9 8 8
4 6 1 2 3 3 1 1 1 2 3 2 3 4 7 16 15 13 11 8 8 8 5 5 5 5 5 5 8 9 10 10 9 8 10 8 4 4 5 7 8 8 8 9 9 8 8 7 7
5 3 4 4 4 3 2 3 4 3 3 2 4 7 16 18 16 15 15 14 12 10 8 5 5 5 5 5 4 3 3 4 3 3 4 4 3 2 4 5 7 7 7 7 8 7 7 6 3
3 4 4 5 5 3 2 2 4 6 4 7 9 15 19 18 15 14 13 12 12 10 9 7 6 5 5 3 3 2 2 2 3 4 4 3 3 2 2 2 2 3 4 3 4 4 3 3 3
2 4 4 5 3 2 4 3 3 6 7 7 13 20 21 19 17 16 15 12 10 10 10 8 7 6 5 4 3 3 2 2 2 3 4 3 2 1 1 1 2 2 2 2 2 2 3 3 3
2 4 4 6 6 3 3 3 3 4 2 9 15 17 19 18 15 12 11 10 10 11 10 9 8 7 5 4 4 4 3 3 3 3 3 4 3 2 2 1 1 1 2 2 2 2 2 2 2
3 5 6 5 3 1 2 2 2 2 7 12 15 15 15 15 14 11 10 11 11 11 11 9 9 8 6 4 4 3 3 3 3 3 4 4 3 3 2 2 1 1 1 1 1 1 2 1 1
2 5 7 3 1 1 2 2 2 3 9 11 12 12 12 11 12 13 13 12 12 11 10 9 9 8 7 6 5 4 3 4 4 4 4 5 4 4 3 2 2 2 1 2 2 2 2 1 1
4 4 5 6 3 1 4 4 4 6 10 10 9 9 9 9 10 10 10 9 9 9 9 10 9 8 7 6 5 3 4 4 4 3 4 5 5 5 4 3 3 2 2 2 2 1 1 1 1
6 3 4 7 3 2 1 5 3 5 8 8 8 9 9 7 7 8 9 9 10 10 10 10 8 9 8 7 5 4 4 4 3 3 4 5 6 6 4 3 3 3 2 2 2 1 1 1 1
1 2 4 6 5 3 1 4 2 3 6 7 7 7 7 8 8 7 8 9 9 9 9 10 9 8 8 5 4 3 3 3 3 3 4 5 5 6 5 3 4 3 3 2 2 2 1 1 1
2 1 5 7 4 1 2 3 2 2 4 5 5 5 6 5 4 5 6 7 8 7 8 9 9 8 7 5 5 4 4 4 3 4 5 6 6 6 5 4 4 4 4 4 4 2 2 1 1
2 3 5 6 3 1 2 3 2 1 4 5 6 7 7 5 5 6 6 7 8 9 9 9 9 9 9 6 5 3 3 3 3 3 4 5 6 6 6 5 5 4 3 4 4 3 2 1 2
3 4 5 4 5 4 3 5 4 3 1 1 3 5 6 8 8 7 7 7 7 8 9 9 9 9 9 7 4 3 2 1 2 3 3 4 6 6 5 6 5 5 5 4 5 5 5 3 2
5 6 6 3 1 3 2 2 6 4 3 2 3 4 6 6 6 6 7 7 7 7 7 7 8 8 7 8 7 7 6 5 5 4 4 4 5 5 6 6 6 6 5 5 5 5 4 4 3
7 1 1 0 2 1 3 2 8 3 4 5 4 5 6 6 6 7 7 7 6 6 6 6 7 7 7 7 8 7 5 4 2 2 4 4 3 4 5 5 5 5 5 5 5 5 5 4 4
4 5 6 6 5 1 2 2 7 4 6 5 4 5 5 6 6 6 5 4 4 5 5 6 6 6 6 7 7 7 6 5 4 4 4 4 3 3 4 5 5 5 5 5 5 5 6 4 4
4 6 5 5 5 4 3 2 9 6 5 5 5 5 5 7 6 6 6 6 5 6 6 6 7 6 6 7 7 7 6 6 6 5 5 4 3 3 5 5 4 4 5 5 5 5 5 5 5
5 9 8 5 4 4 3 4 8 4 4 3 3 3 5 6 6 5 6 6 6 6 6 6 6 6 6 6 6 5 5 4 4 4 4 4 4 4 4 5 4 4 5 5 4 4 4 4 5
7 4 7 8 3 0 5 7 9 2 2 0 2 3 4 5 5 5 4 5 5 5 5 6 6 5 5 6 5 5 5 4 4 4 4 3 3 3 4 4 4 4 4 4 5 4 4 4 4
6 10 7 7 6 3 4 5 6 5 4 3 4 5 4 4 5 5 4 4 4 4 4 4 5 5 4 4 4 3 4 4 4 3 4 4 3 3 3 4 4 3 3 3 4 3 4 4 4
5 5 6 5 6 7 3 8 8 8 7 7 7 6 6 6 7 6 5 4 4 4 4 5 4 5 4 4 3 3 3 3 3 3 3 3 3 3 4 4 4 4 3 3 4 4 4 4 3
5 8 9 7 5 5 5 9 5 6 6 7 6 5 5 6 5 5 5 5 5 5 5 5 4 5 4 4 4 3 3 3 3 2 2 2 2 2 3 3 3 3 3 3 4 4 3 4 3
Wind_Direction
215 161 148 110 56 47 19 335 17 66 78 103 118 118 119 112 150 150 120 135 132 137 143 143 139 134 129 125 122 119 118 117 117 117 119 121 122 122 122 120 119 118 117 116 115 114 113 112 112
158 157 122 61 71 50 339 324 30 45 129 113 92 90 87 79 80 110 128 141 137 138 138 142 141 138 134 130 126 124 122 121 121 121 122 123 123 124 123 122 121 121 121 120 118 118 116 114 113
176 158 79 67 77 137 258 288 101 56 88 96 91 75 86 118 128 137 147 142 135 137 138 149 144 141 138 134 131 128 127 126 125 124 123 123 123 125 124 124 123 121 121 121 120 119 118 117 116
120 53 52 65 64 230 219 231 167 113 47 54 92 77 69 97 140 140 139 140 136 136 140 152 148 145 142 139 135 134 132 130 128 127 126 126 125 125 125 123 122 120 120 119 119 120 120 120 117
66 74 58 45 333 276 238 214 175 148 98 69 91 92 62 36 113 131 140 142 140 138 143 153 151 148 146 144 141 139 137 134 132 130 130 129 127 126 123 120 120 121 120 117 116 118 119 119 119
57 64 70 21 319 302 242 186 153 121 116 102 102 100 67 112 128 139 142 141 142 142 143 150 153 152 151 149 148 145 141 139 138 137 134 131 128 125 122 121 121 121 119 118 117 117 117 117 118
91 76 92 210 299 306 217 155 153 148 150 152 126 110 115 140 139 137 134 132 134 137 137 142 150 155 156 154 153 150 146 144 142 139 137 134 130 128 125 123 123 122 121 120 119 118 117 117 120
114 92 57 332 260 274 233 129 146 149 172 125 126 143 172 162 138 128 125 128 133 134 136 137 138 141 146 154 158 155 151 149 147 144 143 140 137 133 128 123 125 125 125 123 121 120 119 117 120
88 71 27 240 224 250 185 140 149 140 121 116 131 154 152 139 137 133 134 139 151 154 148 142 139 138 138 151 166 159 157 156 153 151 147 131 101 103 117 131 133 131 129 126 121 118 117 114 117
82 107 237 224 219 227 213 190 176 140 135 128 83 99 128 141 149 153 159 165 170 170 165 153 150 148 148 164 150 138 138 138 124 111 112 102 102 115 125 139 137 134 128 122 116 111 102 94 94
133 198 248 264 241 222 202 199 171 150 197 201 170 149 148 154 161 167 172 175 175 170 169 165 161 158 156 150 140 128 115 117 116 118 116 112 101 99 89 82 106 101 102 84 90 87 80 90 101
200 252 245 273 263 206 192 183 174 190 219 185 159 154 157 165 173 176 177 177 171 170 174 171 171 167 167 155 148 139 135 138 137 135 133 127 121 116 110 96 91 82 85 91 81 85 91 98 109
233 278 270 263 276 224 179 193 197 225 195 126 139 155 167 174 179 180 176 172 171 177 179 178 177 174 170 159 162 158 155 159 155 149 152 151 151 158 144 131 119 117 113 114 108 99 105 113 116
264 274 289 288 272 229 167 232 169 230 135 134 150 167 175 179 178 173 173 177 181 184 182 176 178 175 170 170 170 162 165 165 161 171 176 170 165 168 163 162 161 157 139 125 121 118 113 116 121
309 322 328 334 328 266 104 324 244 165 138 147 164 171 174 180 179 183 184 184 186 186 180 179 179 176 176 177 180 173 172 170 180 187 183 177 173 174 174 177 191 193 161 135 116 107 103 123 125
24 24 339 314 346 2 118 255 264 150 149 160 169 172 177 182 186 187 183 182 180 177 179 181 184 181 182 182 181 174 176 181 188 184 182 183 182 178 176 184 201 190 160 144 141 135 124 127 135
27 13 319 312 339 31 114 258 279 151 157 168 175 178 180 178 186 185 182 181 180 178 179 180 180 179 182 182 178 178 181 187 185 176 181 187 187 183 178 188 195 176 163 159 170 149 153 162 162
304 331 313 299 308 360 286 269 298 168 168 177 181 179 177 187 194 181 180 181 178 179 178 180 181 177 172 167 161 166 184 190 187 182 190 185 188 185 178 186 186 172 167 173 168 154 141 145 156
175 262 285 274 288 316 284 287 277 185 174 181 180 175 183 193 173 161 172 174 170 173 175 180 180 175 165 165 172 178 197 191 192 190 192 188 187 186 182 188 177 176 183 188 175 153 153 150 133
203 288 291 298 338 34 347 335 302 219 209 198 183 181 184 174 162 162 169 172 178 182 181 179 181 177 176 178 173 176 174 181 192 194 194 192 187 186 190 184 183 182 181 182 179 165 155 161 156
242 216 245 274 342 20 45 348 325 308 322 177 182 182 182 183 180 173 172 177 179 186 188 186 184 182 179 170 151 138 120 112 164 197 200 199 191 189 187 186 184 183 184 191 192 180 172 176 178
259 230 216 249 28 318 47 293 291 300 302 234 208 185 190 186 174 169 172 175 181 189 183 178 176 179 175 168 171 172 181 191 198 194 198 197 195 195 187 184 185 186 187 190 196 188 182 166 178
219 231 172 181 145 26 11 151 283 320 280 256 225 197 191 186 175 172 171 176 178 176 171 171 167 172 173 175 179 180 190 194 176 174 189 198 197 198 189 185 188 189 190 195 196 186 186 180 179
171 69 54 46 69 31 294 174 273 250 237 258 231 199 185 175 165 163 160 157 164 169 162 160 164 173 173 175 181 185 188 183 178 189 194 196 194 196 194 189 192 196 195 195 198 196 190 191 185
113 90 34 6 17 258 286 228 251 252 249 244 229 203 175 161 158 157 159 168 175 175 171 168 171 178 176 177 186 193 194 191 195 196 196 194 194 197 201 195 195 199 198 198 193 191 195 193 191
169 140 154 187 215 273 320 247 257 266 275 260 210 176 159 155 160 167 171 174 177 177 173 175 179 178 176 181 189 193 195 194 199 196 195 200 203 201 193 193 197 200 195 197 190 191 200 196 199
139 167 154 127 143 273 288 290 301 293 320 328 163 148 161 163 159 158 160 166 169 173 179 176 174 174 177 185 185 187 188 190 192 191 194 202 205 198 190 189 192 196 193 193 186 190 198 191 198
140 141 109 121 142 216 283 277 258 263 243 225 195 177 168 156 150 147 151 156 158 157 152 143 150 161 159 162 172 177 177 180 180 179 187 194 195 190 180 183 185 189 194 195 190 187 190 188 201
114 109 108 113 145 152 216 264 229 222 213 202 204 187 172 167 161 155 149 144 140 131 132 138 140 139 140 148 155 153 156 164 168 177 191 192 186 178 179 183 180 183 189 186 184 192 183 184 192
161 163 146 149 192 169 170 260 266 227 212 194 190 180 173 164 148 142 139 141 141 140 142 143 140 134 139 141 134 132 133 137 143 152 165 159 162 168 173 170 168 176 176 174 176 184 176 171 180